sat.trackr.live / text

‹ back to catalog

STARLINK-35721

NORAD 67046 · 2025-294S

PAYLOAD ACTIVE UNKNOWN

§ Identity

Operator
Country
US
Launch date
2025-12-11
Launch site
AFETR
Launch vehicle
Mass (kg)
RCS (m²)

Purposes: comms

External: N2YO · Heavens-Above · Gunter

§ Orbital elements

Epoch: 2026-05-24T21:47:58.562016Z

Period
94.27 min
Inclination
43.0035°
Eccentricity
0.0002098
Mean motion
15.27583231 rev/d
Perigee alt
481.6 km
Apogee alt
484.5 km
Semi-major
6,861.2 km
B*
6.7977e-4
RAAN
327.8261°
Arg perigee
275.7148°
Mean anomaly
84.3464°
Rev number
2,645

§ Raw data

STARLINK-357211 67046U 25294S   26144.90831669  .00018493  00000+0  67977-3 0  99972 67046  43.0035 327.8261 0002098 275.7148  84.3464 15.27583231 26455

JSON: /api/v1/satellites/67046 · /tle

For live sub-satellite position, see the globe view (requires WebGL).

§ Visibility from observer

Set your observer location to see the next 7 days of passes ≥ 10°. The values pass through the URL so the page stays shareable.

No JS? Fill the form by hand. The geolocation button needs JavaScript.